カタログに戻る

SL-3 R/B

運用中PO
NORAD 13068·ROCKET BODY·🇷🇺 Russia

打ち上げ Feb 19, 1982 から Plesetsk Cosmodrome

Loading…

次のパス (今後24時間)

TLE

最新Source: Space-Track

元期: Sep 14, 2026, 13:43 UTC

1 13068U 82013B   26257.57198188  .00002350  00000-0  97455-4 0  9995
2 13068  81.1724 299.1038 0020479 260.6708  99.2209 15.23293185433095

AllMySatでSL-3 R/Bをリアルタイム追跡

Download on the App Store